GFSSE_sfc_thetae_150.txt.gz
Theta_e
349 354 352 352 351 351 351 351 352 354 356 356 356 356 357 356 356 356 357 358 358 358 354 353 353 352 351 350 351 351 352 352 353 354 354 353 352 352 351 351 351 345 350
354 356 350 351 351 351 351 351 352 354 356 357 357 357 357 356 356 356 356 357 358 357 355 352 352 352 350 349 349 350 350 350 351 352 353 352 351 351 349 348 349 347 351
354 355 354 350 352 352 353 353 353 354 355 356 356 356 356 356 356 356 356 357 358 357 355 353 352 351 349 348 348 348 349 349 350 351 352 348 348 350 349 348 350 350 350
352 355 354 349 350 351 352 352 353 353 353 354 355 355 355 356 356 355 355 355 357 356 353 352 353 352 349 347 348 347 348 348 349 350 349 348 346 349 349 349 349 348 348
350 352 351 348 349 350 351 351 351 352 351 352 353 353 353 354 354 354 354 355 355 353 353 353 354 354 349 346 346 346 346 347 348 346 348 351 350 348 348 349 347 348 349
347 350 344 343 347 350 351 350 350 350 350 350 351 351 352 353 354 354 353 354 354 353 353 353 354 351 348 345 344 344 345 345 344 346 349 348 350 348 349 350 349 349 348
345 347 346 341 345 346 348 348 349 348 348 350 351 351 350 351 351 351 351 351 352 353 353 353 353 349 346 345 344 343 342 342 343 343 342 346 350 347 348 349 349 349 349
342 344 347 341 342 342 343 343 344 345 346 347 349 350 350 351 350 350 349 349 349 351 352 353 352 351 348 346 344 342 342 340 342 342 342 342 344 343 346 348 348 348 348
339 342 345 348 342 337 337 337 338 340 342 343 344 345 346 347 349 350 349 349 348 349 348 349 349 349 349 347 344 341 339 340 344 343 343 342 345 342 343 345 349 348 347
334 336 339 344 348 348 344 334 334 334 336 338 339 342 340 344 345 346 347 347 348 348 348 347 347 347 347 346 344 341 339 339 346 345 344 343 344 344 344 345 348 348 347
327 330 333 336 340 344 344 337 335 333 333 336 338 336 341 346 347 347 338 340 341 342 343 344 345 344 343 343 341 339 339 348 349 348 347 343 344 345 347 348 347 346 347
325 325 328 331 334 336 337 342 342 340 340 340 342 341 341 339 338 336 334 334 334 336 336 339 340 342 343 349 348 344 350 350 350 350 349 341 344 347 349 349 348 347 346
324 323 325 328 330 331 333 335 336 338 337 334 336 337 335 332 329 331 330 331 336 334 341 343 343 346 346 346 347 348 348 349 348 350 347 339 343 346 348 347 347 348 346
321 321 322 324 327 328 328 328 329 329 330 329 328 332 334 330 325 324 324 324 326 327 328 327 332 337 340 339 340 343 344 344 343 344 343 339 338 344 346 347 347 347 345
319 320 322 324 325 325 326 325 325 324 323 323 323 324 329 330 327 325 323 323 321 322 325 329 330 329 333 331 333 334 335 336 338 338 341 337 337 339 342 346 347 347 346
318 320 322 322 324 324 323 323 321 320 319 318 318 318 320 322 324 325 325 325 325 325 326 326 325 326 328 328 329 330 330 331 332 334 334 336 331 335 336 338 341 344 344
318 319 321 321 322 321 320 319 318 316 316 315 314 314 315 317 317 319 319 319 318 319 320 322 321 323 323 323 323 323 324 326 326 327 328 330 332 329 330 333 335 337 339
316 318 318 317 319 318 317 317 315 314 313 312 312 312 312 313 314 315 315 314 315 315 316 316 316 316 317 317 317 318 319 321 322 324 324 326 327 331 330 326 328 331 333
316 317 317 318 317 316 316 315 314 313 312 311 311 311 311 310 312 313 312 312 314 314 314 313 314 314 314 314 314 316 318 319 321 324 328 329 329 328 324 320 318 320 322
314 316 317 317 316 315 314 313 312 310 310 310 308 308 308 308 308 310 309 310 311 311 310 310 311 312 313 311 311 314 318 320 324 324 323 322 322 321 320 319 322 321 318
313 313 315 315 315 314 312 311 311 309 308 306 306 305 306 306 307 307 307 307 308 308 308 309 310 309 310 311 311 312 317 321 322 323 322 320 318 317 316 316 317 319 320
311 312 313 314 314 313 313 313 311 309 307 306 305 305 305 305 305 305 306 306 306 307 307 307 308 307 308 308 306 308 309 312 314 319 319 315 313 313 312 312 313 314 314
311 311 311 312 313 313 312 310 308 307 305 304 303 303 303 304 304 305 305 306 306 306 305 306 305 305 305 307 307 305 304 304 304 313 315 315 313 312 311 308 310 309 310
310 311 311 310 311 311 311 309 308 307 304 303 303 303 302 303 303 304 304 304 304 304 304 303 304 304 305 303 308 305 305 303 301 300 307 308 309 308 310 310 309 307 306
310 309 309 308 309 310 310 310 309 307 304 302 302 301 301 302 302 302 303 303 303 303 302 302 302 302 303 302 301 302 303 304 300 297 294 299 302 306 307 307 309 307 306
310 308 307 307 307 308 309 309 308 305 302 301 301 300 300 301 301 301 301 302 302 302 301 301 301 300 300 300 300 298 296 294 293 292 291 293 294 301 304 301 299 300 300

GFSSE_sfc_thetae_153.txt.gz
Theta_e
346 352 352 351 351 351 351 352 354 356 355 356 356 357 356 356 357 357 358 358 358 356 353 353 353 351 350 350 350 351 352 352 354 353 353 352 351 351 349 350 352 343 350
354 354 350 351 351 351 351 352 354 356 357 357 357 357 356 356 356 357 357 358 357 355 352 352 352 351 349 349 349 350 350 351 352 353 354 352 351 350 347 348 351 345 350
353 354 352 351 352 352 352 352 354 356 357 357 357 357 356 356 356 356 356 357 357 356 353 352 351 350 348 347 348 348 349 350 350 352 353 346 346 349 346 348 350 351 350
351 354 353 350 351 352 353 353 353 355 356 356 356 356 356 355 355 355 356 356 356 355 353 351 352 350 347 346 346 347 348 348 349 351 349 347 344 349 348 347 348 348 348
351 354 352 349 349 351 352 352 352 352 353 354 355 355 355 355 355 355 355 355 355 353 352 352 353 351 347 346 345 345 346 347 349 348 347 349 349 348 349 348 347 347 349
351 353 346 346 348 350 351 351 351 350 350 351 353 354 353 353 354 354 354 354 353 352 352 352 354 353 349 346 345 344 344 346 346 348 342 346 348 349 349 348 349 349 348
350 351 351 344 347 349 350 350 349 349 350 350 351 352 353 353 353 353 352 352 352 352 352 352 353 349 349 347 345 344 343 343 341 342 339 343 349 351 349 349 349 349 347
348 349 349 344 344 345 345 346 346 347 348 349 350 350 350 350 351 350 349 350 351 351 352 353 353 351 348 347 345 343 342 341 342 340 340 339 348 350 348 349 350 348 348
348 350 350 348 343 339 338 339 341 343 344 345 346 348 349 350 350 350 350 349 349 349 349 349 349 350 350 349 346 343 341 341 343 341 341 340 346 346 344 346 349 348 348
345 348 350 349 349 348 345 336 336 338 339 340 342 342 344 347 348 348 349 349 350 349 348 348 348 348 348 347 346 344 341 341 345 343 344 344 347 345 344 345 348 348 347
340 343 347 348 348 347 346 340 336 336 337 339 341 340 342 348 348 348 339 341 342 343 344 346 347 346 345 344 344 341 340 347 346 347 345 345 348 347 346 348 348 346 347
336 338 341 343 346 347 343 346 345 344 344 343 343 344 343 343 341 339 336 335 336 337 339 341 343 345 343 349 350 344 348 349 350 347 347 345 346 347 347 347 347 348 346
334 332 334 336 337 338 338 340 341 342 341 341 339 341 340 336 334 336 334 335 339 334 342 341 343 345 345 346 348 349 349 348 347 344 342 340 342 347 347 346 347 347 346
330 329 330 330 332 333 332 332 333 333 336 335 335 337 338 334 329 328 329 331 332 336 337 338 340 339 343 342 342 342 343 343 341 341 342 341 340 343 343 345 346 347 346
328 327 327 328 330 330 330 329 329 329 329 329 330 331 336 333 333 329 327 326 326 327 329 331 335 335 336 337 337 338 337 338 339 338 338 338 338 339 339 339 341 342 345
326 325 327 327 328 328 328 328 326 326 326 325 325 325 327 330 332 332 331 330 330 329 330 330 330 331 332 333 333 334 333 334 334 335 334 335 331 335 337 336 337 338 340
325 325 325 327 327 326 325 324 323 322 322 321 320 321 321 323 324 326 325 326 323 323 324 325 324 324 325 327 326 326 326 327 328 329 329 330 330 327 325 327 331 332 333
324 324 325 323 325 324 323 322 320 320 319 318 318 318 318 317 319 320 320 319 319 320 319 319 319 319 320 320 320 320 321 322 323 325 325 327 328 329 326 321 323 324 327
323 323 322 323 322 322 322 320 319 319 317 316 316 316 315 315 316 317 316 317 317 317 316 316 317 316 316 317 316 316 319 320 322 324 328 329 328 326 324 320 320 319 319
322 323 322 322 321 321 319 318 317 316 315 315 314 313 313 313 313 314 313 313 314 314 313 313 314 314 315 313 311 313 319 320 324 325 324 324 322 321 320 321 324 316 314
321 321 321 320 320 318 316 314 314 313 313 312 311 311 311 311 311 311 310 310 312 311 311 311 311 311 311 312 312 312 315 322 322 323 322 319 318 318 318 317 318 317 315
319 319 320 319 319 318 316 316 316 314 313 311 309 309 309 309 309 310 310 309 310 310 310 309 310 309 310 311 307 309 309 314 316 317 319 316 315 316 314 314 314 314 313
317 318 318 319 318 317 317 316 314 312 309 307 307 306 307 308 309 309 309 310 310 310 308 309 309 309 307 309 309 307 305 305 306 314 316 314 312 312 312 313 313 311 308
317 318 318 318 318 317 317 313 311 308 305 307 306 306 306 307 307 308 308 309 309 308 308 307 308 308 308 305 310 308 308 306 303 302 308 308 308 307 310 310 310 307 307
317 317 317 317 317 316 315 314 311 310 309 307 306 305 305 306 306 307 308 308 308 307 306 306 306 306 306 305 304 304 305 306 304 300 297 302 303 304 306 303 302 300 300
317 317 316 315 314 315 314 314 313 312 307 305 305 304 304 305 305 305 306 306 306 305 304 304 304 304 303 303 303 301 300 299 296 295 294 296 297 301 304 300 296 292 293

GFSSE_sfc_thetae_156.txt.gz
Theta_e
342 347 351 352 352 353 353 354 355 354 355 356 357 356 356 357 358 358 357 357 357 356 353 354 352 351 350 350 351 352 353 353 353 353 353 353 351 350 350 351 350 342 351
347 347 349 351 352 353 353 354 355 355 356 357 357 357 356 357 357 357 357 358 357 355 352 352 352 350 349 349 350 351 351 351 352 353 353 353 352 349 349 351 349 346 351
349 347 346 350 352 352 353 355 356 357 357 357 357 357 356 356 356 356 356 357 357 356 352 352 351 349 348 349 349 350 350 351 350 352 351 344 345 350 348 351 350 350 350
350 349 346 350 351 352 352 353 355 357 357 357 357 356 356 356 356 356 356 357 357 356 352 351 351 349 348 348 348 348 349 349 349 350 346 346 342 350 348 349 350 350 350
349 351 348 349 350 351 351 351 353 354 355 355 356 356 356 356 356 356 355 356 356 354 352 352 352 350 348 346 346 347 348 347 347 346 345 346 343 348 349 349 348 349 349
353 351 346 347 349 351 351 351 350 350 351 352 353 355 356 356 355 355 354 355 354 354 352 352 354 353 349 346 345 345 344 344 343 338 345 346 346 350 350 350 349 349 347
349 348 347 345 348 349 350 350 349 349 349 350 352 353 354 354 354 354 353 354 354 354 354 354 353 350 349 347 346 344 342 341 338 336 337 340 346 352 351 350 348 348 347
349 349 347 347 346 347 347 347 347 347 349 350 350 351 352 352 353 352 352 351 352 353 353 353 351 350 348 346 345 343 341 341 339 338 337 341 347 352 352 352 348 347 348
349 348 348 346 342 340 340 342 343 345 346 346 348 349 350 349 349 350 350 349 349 349 349 349 349 349 350 348 346 343 341 341 338 338 339 342 350 352 352 351 349 348 347
348 347 348 346 346 343 341 338 340 341 341 342 344 344 345 347 348 349 348 348 348 348 348 348 348 347 347 346 346 344 342 342 341 340 339 341 347 350 349 348 348 348 348
344 346 346 348 348 345 342 339 338 340 340 341 341 341 341 348 347 347 340 343 344 345 347 347 347 346 345 344 343 343 341 343 342 342 343 341 347 349 348 347 346 346 345
339 342 345 345 344 345 343 342 343 342 343 344 344 345 341 339 336 336 336 337 338 339 341 342 345 343 342 343 344 342 342 344 345 343 342 343 347 347 346 347 347 347 346
337 339 341 344 346 346 344 345 344 343 341 340 338 340 340 336 334 335 334 335 338 337 341 340 340 342 343 342 343 343 344 344 342 338 340 342 344 346 346 346 344 346 344
334 334 336 336 337 339 336 336 335 336 337 336 334 337 337 332 329 328 329 330 328 331 333 335 336 334 336 341 338 338 340 340 338 338 340 340 342 343 342 341 342 343 344
330 330 330 331 333 333 333 332 331 329 330 330 331 331 334 333 330 328 326 326 325 326 326 328 330 333 333 335 333 335 334 334 334 333 335 339 338 340 339 339 339 338 340
329 327 328 328 331 330 330 330 328 327 326 326 325 325 327 328 329 330 328 327 326 327 327 328 327 327 328 329 329 330 329 328 329 330 329 328 330 331 333 334 335 335 334
327 326 327 328 329 329 327 326 325 324 323 322 320 321 321 323 323 323 324 322 320 320 320 321 320 321 321 324 322 322 321 323 323 324 323 324 324 324 325 326 327 328 330
326 324 325 325 327 326 325 323 321 321 321 319 318 318 317 318 318 318 318 317 316 317 316 316 315 314 315 316 315 316 316 318 319 318 323 326 324 324 322 323 322 322 323
325 324 324 324 324 324 323 321 320 320 318 317 317 315 315 315 316 316 315 314 314 314 313 313 313 312 312 311 310 310 313 315 316 323 322 322 320 318 317 319 317 317 317
324 324 323 322 323 322 320 319 317 317 316 315 314 313 313 312 313 313 311 310 311 311 310 310 310 310 310 308 309 309 313 316 319 321 319 319 317 315 314 315 315 313 313
324 322 321 320 320 318 316 314 313 311 312 311 311 311 311 310 311 309 309 308 309 308 308 308 307 307 307 308 306 308 311 317 317 318 315 314 313 313 312 311 312 313 311
321 321 320 319 319 318 316 315 314 313 311 310 309 308 309 308 308 308 307 307 308 307 307 306 306 306 306 307 302 304 305 310 311 315 314 313 310 310 311 311 310 308 306
320 319 319 319 318 317 316 316 315 313 308 306 306 305 306 308 308 308 308 308 307 308 305 305 306 304 303 305 305 302 299 299 300 310 308 307 304 304 307 303 301 300 302
319 319 318 319 318 317 317 314 311 307 304 304 304 305 305 307 307 307 307 307 307 306 305 304 305 304 304 301 305 306 304 301 297 297 303 301 301 303 302 300 297 296 295
318 318 318 318 318 316 316 314 311 308 307 306 305 304 304 304 305 306 306 306 305 304 303 302 302 302 302 301 300 300 301 301 298 294 292 295 298 300 299 296 294 292 292
317 318 317 317 316 316 315 313 311 309 307 304 303 302 302 303 303 304 305 304 304 302 302 301 301 300 300 299 298 297 295 293 292 291 290 291 292 296 296 295 292 291 291

GFSSE_sfc_thetae_162.txt.gz
Theta_e
338 345 350 352 353 352 351 350 350 352 354 354 355 355 355 354 355 355 354 353 355 355 353 352 350 349 349 350 350 351 351 351 351 352 352 352 350 349 349 349 348 348 351
342 346 348 351 352 353 352 351 351 352 354 354 354 355 355 354 354 354 354 354 354 355 352 351 349 348 348 349 350 350 350 349 349 350 351 351 351 349 349 349 349 349 351
341 346 348 349 352 353 353 352 352 354 355 354 354 354 355 355 354 354 353 353 354 354 352 351 349 348 346 347 347 348 348 348 347 348 348 343 346 350 348 349 350 351 350
342 344 346 349 351 352 352 352 352 355 355 354 354 354 354 354 354 354 353 353 354 354 352 351 349 347 346 345 345 345 346 345 345 346 342 343 343 350 348 349 350 349 349
340 343 346 347 349 351 351 352 352 353 353 353 352 353 354 354 354 353 352 353 355 354 352 352 350 346 344 342 342 342 342 342 341 340 341 341 340 348 348 349 349 349 348
341 344 343 344 347 349 351 351 351 351 350 351 351 353 354 354 354 352 351 353 355 354 354 353 351 346 343 341 341 341 341 340 340 336 336 338 341 349 349 349 347 347 346
341 342 343 343 345 348 350 351 350 349 349 350 351 351 352 353 353 351 351 352 352 352 353 352 350 348 345 343 342 341 340 339 336 334 335 339 340 349 348 349 347 346 347
341 342 344 347 346 345 346 346 345 346 347 348 349 350 352 351 350 350 350 350 350 349 349 349 347 345 344 343 342 340 339 339 338 334 335 336 343 349 348 350 347 346 345
341 341 341 343 345 343 341 341 342 344 345 346 346 348 349 348 348 348 348 349 349 348 347 346 346 345 346 344 342 340 340 340 337 336 338 337 346 349 350 348 348 346 346
339 339 338 338 339 338 339 340 342 343 343 344 345 345 344 344 346 346 346 345 346 345 345 345 344 344 344 343 343 342 340 339 337 338 337 338 342 348 350 348 346 345 346
338 337 335 339 336 334 337 341 342 343 342 342 342 341 339 339 341 342 342 343 344 342 342 343 343 342 341 341 341 340 340 338 339 338 339 338 343 347 349 347 345 344 345
334 336 336 336 334 334 340 336 335 339 337 337 337 337 335 333 335 337 337 339 340 340 341 341 341 339 339 339 339 339 338 339 339 340 340 339 342 346 344 344 342 344 343
337 337 335 337 335 334 334 333 333 334 334 335 335 334 332 333 335 332 334 333 335 338 338 339 340 339 338 338 338 337 338 339 337 336 337 338 342 344 344 343 342 341 342
336 338 339 338 336 333 334 334 333 334 331 331 332 331 328 326 326 327 329 329 327 328 329 331 335 336 334 335 336 336 336 332 333 337 334 335 339 343 342 340 338 337 337
334 335 339 340 338 334 332 331 331 329 327 325 326 325 328 323 322 322 322 322 324 325 326 326 328 327 329 331 331 331 327 327 329 333 333 331 333 336 338 338 337 337 335
335 333 333 334 331 325 323 320 321 323 322 320 317 317 321 323 320 320 320 320 320 321 320 322 322 323 322 324 325 325 322 323 326 329 325 326 327 329 330 331 332 332 332
333 333 330 326 322 320 317 317 317 316 316 314 313 314 316 317 316 320 319 315 312 312 312 313 312 315 316 316 315 315 315 317 321 323 320 321 321 323 324 324 324 324 326
329 329 327 325 320 317 315 315 315 313 312 311 310 310 311 312 312 311 310 309 309 309 309 309 309 308 308 307 306 307 309 314 321 320 319 319 318 318 320 321 320 320 319
326 323 320 320 317 316 313 312 312 310 310 309 308 307 309 309 311 309 309 308 308 307 307 308 306 306 304 304 305 304 307 313 317 316 314 316 316 314 313 314 314 314 314
322 321 320 319 317 315 313 310 308 307 307 307 307 306 307 307 308 307 306 305 307 305 304 304 304 304 303 302 306 305 307 314 313 311 311 312 313 312 310 306 305 306 309
319 319 319 317 315 313 311 309 306 304 304 304 306 306 305 305 305 305 303 304 304 302 302 303 303 302 301 301 301 305 309 310 309 308 307 307 307 307 303 303 301 300 299
317 318 318 317 314 313 312 308 306 304 303 303 304 304 304 304 303 304 302 302 303 302 301 301 301 301 301 300 298 304 303 306 304 304 304 301 299 299 297 296 297 296 295
316 316 317 316 315 313 311 307 304 302 301 300 300 300 301 303 304 303 303 303 302 301 300 299 300 301 298 299 300 302 299 298 300 302 301 300 297 294 293 292 293 293 293
313 314 315 315 314 313 311 307 305 303 299 299 298 299 300 303 303 303 303 302 301 300 299 298 299 298 299 297 298 300 297 299 297 292 298 297 294 292 291 291 290 291 291
312 312 313 314 314 314 311 309 306 301 299 298 298 299 299 300 301 302 301 300 299 299 297 297 296 297 296 295 294 294 294 292 293 293 290 290 292 291 291 290 289 289 290
312 312 312 312 313 312 309 306 304 302 299 298 298 298 297 298 299 300 300 298 298 297 296 295 294 294 293 293 293 293 293 293 290 291 289 288 288 289 289 288 287 287 288